| time (UTC) | temp C | wind direction | speed KPH | gust KPH | rain 1hr cm | rain 24hr cm | rain mn cm | humidity % | barometer mb |
| 20260510103858 | 8 | 138 | 0.0 | 1.6 | 0.00 | 0.00 | 0.00 | 95 | 1011.1 |
| 20260510103355 | 8 | 138 | 0.0 | 0.0 | 0.00 | 0.00 | 0.00 | 95 | 1010.7 |
| 20260510102851 | 8 | 138 | 0.0 | 1.6 | 0.00 | 0.00 | 0.00 | 95 | 1010.8 |
| 20260510102346 | 8 | 138 | 0.0 | 0.0 | 0.00 | 0.00 | 0.00 | 95 | 1010.8 |
| 20260510101844 | 8 | 145 | 0.0 | 0.0 | 0.00 | 0.00 | 0.00 | 95 | 1010.8 |
| 20260510101342 | 8 | 145 | 0.0 | 1.6 | 0.00 | 0.00 | 0.00 | 95 | 1010.6 |
| 20260510100838 | 8 | 151 | 1.6 | 1.6 | 0.00 | 0.00 | 0.00 | 96 | 1010.6 |
| 20260510100336 | 8 | 151 | 0.0 | 0.0 | 0.00 | 0.00 | 0.00 | 96 | 1010.4 |
| 20260510095832 | 8 | 151 | 0.0 | 1.6 | 0.00 | 0.00 | 0.00 | 96 | 1010.5 |
| 20260510095327 | 8 | 151 | 0.0 | 0.0 | 0.00 | 0.00 | 0.00 | 96 | 1010.0 |
| 20260510094826 | 8 | 151 | 1.6 | 3.2 | 0.00 | 0.00 | 0.00 | 97 | 1010.0 |
| 20260510094322 | 7 | 150 | 1.6 | 1.6 | 0.00 | 0.00 | 0.00 | 97 | 1010.1 |
| 20260510093818 | 7 | 174 | 1.6 | 1.6 | 0.00 | 0.00 | 0.00 | 97 | 1009.9 |
| 20260510093314 | 7 | 175 | 0.0 | 0.0 | 0.00 | 0.00 | 0.00 | 97 | 1009.7 |
| 20260510092811 | 7 | 175 | 1.6 | 1.6 | 0.00 | 0.00 | 0.00 | 97 | 1009.7 |
| 20260510092307 | 7 | 175 | 0.0 | 1.6 | 0.00 | 0.00 | 0.00 | 97 | 1009.7 |
| 20260510091803 | 7 | 175 | 1.6 | 1.6 | 0.00 | 0.00 | 0.00 | 97 | 1009.7 |
| 20260510091301 | 7 | 175 | 0.0 | 1.6 | 0.00 | 0.00 | 0.00 | 97 | 1009.5 |
| 20260510090756 | 7 | 175 | 0.0 | 0.0 | 0.00 | 0.00 | 0.00 | 97 | 1009.5 |
| 20260510090253 | 7 | 175 | 1.6 | 1.6 | 0.00 | 0.00 | 0.00 | 97 | 1009.6 |
| 20260510085749 | 7 | 175 | 0.0 | 0.0 | 0.00 | 0.00 | 0.00 | 96 | 1009.6 |
| 20260510085243 | 7 | 176 | 0.0 | 0.0 | 0.00 | 0.00 | 0.00 | 96 | 1009.4 |
| 20260510084740 | 7 | 176 | 0.0 | 1.6 | 0.00 | 0.00 | 0.00 | 96 | 1009.5 |
| 20260510084237 | 8 | 176 | 0.0 | 0.0 | 0.00 | 0.00 | 0.00 | 95 | 1009.7 |
| 20260510083733 | 8 | 176 | 0.0 | 0.0 | 0.00 | 0.00 | 0.00 | 95 | 1009.3 |
| 20260510083230 | 8 | 176 | 0.0 | 0.0 | 0.00 | 0.00 | 0.00 | 95 | 1009.4 |
| 20260510082726 | 8 | 176 | 0.0 | 1.6 | 0.00 | 0.00 | 0.00 | 95 | 1009.5 |
| 20260510082223 | 8 | 176 | 0.0 | 0.0 | 0.00 | 0.00 | 0.00 | 95 | 1009.6 |
| 20260510081722 | 8 | 176 | 0.0 | 0.0 | 0.00 | 0.00 | 0.00 | 94 | 1009.5 |
| 20260510081218 | 8 | 176 | 0.0 | 0.0 | 0.00 | 0.00 | 0.00 | 94 | 1009.5 |
| 20260510080713 | 8 | 176 | 0.0 | 0.0 | 0.00 | 0.00 | 0.00 | 94 | 1009.3 |
| 20260510080209 | 9 | 176 | 0.0 | 0.0 | 0.00 | 0.00 | 0.00 | 94 | 1009.2 |
| 20260510075706 | 9 | 176 | 0.0 | 0.0 | 0.00 | 0.00 | 0.00 | 94 | 1009.0 |
| 20260510075204 | 9 | 176 | 0.0 | 0.0 | 0.00 | 0.00 | 0.00 | 94 | 1009.3 |
| 20260510074700 | 9 | 176 | 0.0 | 0.0 | 0.00 | 0.00 | 0.00 | 94 | 1009.3 |
| 20260510074156 | 9 | 176 | 0.0 | 0.0 | 0.00 | 0.00 | 0.00 | 93 | 1009.0 |
| 20260510073653 | 10 | 176 | 0.0 | 0.0 | 0.00 | 0.00 | 0.00 | 93 | 1009.6 |
| 20260510073149 | 10 | 176 | 0.0 | 0.0 | 0.00 | 0.00 | 0.00 | 93 | 1009.6 |
| 20260510072645 | 10 | 176 | 0.0 | 0.0 | 0.00 | 0.00 | 0.00 | 93 | 1009.7 |
| 20260510072142 | 10 | 177 | 0.0 | 0.0 | 0.00 | 0.00 | 0.00 | 93 | 1009.5 |
| 20260510071638 | 10 | 176 | 0.0 | 0.0 | 0.00 | 0.00 | 0.00 | 92 | 1009.8 |
| 20260510071136 | 10 | 176 | 0.0 | 1.6 | 0.00 | 0.00 | 0.00 | 91 | 1009.5 |
| 20260510070633 | 10 | 189 | 0.0 | 0.0 | 0.00 | 0.00 | 0.00 | 90 | 1010.0 |
| 20260510070130 | 11 | 189 | 0.0 | 0.0 | 0.00 | 0.00 | 0.00 | 87 | 1010.0 |
| 20260510065626 | 11 | 189 | 0.0 | 1.6 | 0.00 | 0.00 | 0.00 | 84 | 1010.1 |
| 20260510065122 | 11 | 191 | 0.0 | 0.0 | 0.00 | 0.00 | 0.00 | 81 | 1010.2 |
| 20260510064618 | 11 | 128 | 1.6 | 1.6 | 0.00 | 0.00 | 0.00 | 84 | 1010.2 |
| 20260510064115 | 12 | 219 | 0.0 | 1.6 | 0.00 | 0.00 | 0.00 | 82 | 1010.3 |
| 20260510063612 | 12 | 220 | 1.6 | 1.6 | 0.00 | 0.00 | 0.00 | 80 | 1010.2 |
| 20260510063109 | 12 | 153 | 0.0 | 0.0 | 0.00 | 0.00 | 0.00 | 80 | 1010.3 |
| 20260510062605 | 12 | 165 | 0.0 | 1.6 | 0.00 | 0.00 | 0.00 | 82 | 1010.7 |
| 20260510062101 | 11 | 149 | 0.0 | 1.6 | 0.00 | 0.00 | 0.00 | 83 | 1010.9 |
| 20260510061557 | 11 | 147 | 1.6 | 1.6 | 0.00 | 0.00 | 0.00 | 84 | 1010.5 |
| 20260510061054 | 10 | 124 | 0.0 | 0.0 | 0.00 | 0.00 | 0.00 | 90 | 1010.4 |
| 20260510060550 | 9 | 141 | 0.0 | 0.0 | 0.00 | 0.00 | 0.00 | 93 | 1010.4 |
| 20260510060046 | 8 | 142 | 0.0 | 0.0 | 0.00 | 0.00 | 0.00 | 95 | 1010.3 |
| 20260510055542 | 8 | 126 | 1.6 | 1.6 | 0.00 | 0.00 | 0.00 | 96 | 1010.3 |
| 20260510055041 | 8 | 165 | 1.6 | 1.6 | 0.00 | 0.00 | 0.00 | 97 | 1010.4 |
| 20260510054537 | 7 | 195 | 1.6 | 1.6 | 0.00 | 0.00 | 0.00 | 98 | 1010.1 |
| 20260510054032 | 7 | 150 | 0.0 | 0.0 | 0.00 | 0.00 | 0.00 | 97 | 1010.2 |
| 20260510053526 | 7 | 151 | 0.0 | 0.0 | 0.00 | 0.00 | 0.00 | 97 | 1010.1 |
| 20260510053024 | 7 | 151 | 1.6 | 1.6 | 0.00 | 0.00 | 0.00 | 97 | 1010.0 |
| 20260510052520 | 7 | 157 | 3.2 | 3.2 | 0.00 | 0.00 | 0.00 | 97 | 1009.9 |
| 20260510052016 | 7 | 156 | 0.0 | 0.0 | 0.00 | 0.00 | 0.00 | 97 | 1009.9 |
| 20260510051512 | 7 | 156 | 0.0 | 0.0 | 0.00 | 0.00 | 0.00 | 97 | 1010.0 |
| 20260510051008 | 7 | 153 | 0.0 | 0.0 | 0.00 | 0.00 | 0.00 | 97 | 1010.1 |
| 20260510050506 | 7 | 133 | 3.2 | 3.2 | 0.00 | 0.00 | 0.00 | 97 | 1009.9 |
| 20260510050002 | 7 | 155 | 0.0 | 0.0 | 0.00 | 0.00 | 0.00 | 97 | 1009.8 |
| 20260510045500 | 7 | 155 | 0.0 | 0.0 | 0.00 | 0.00 | 0.00 | 97 | 1010.0 |
| 20260510044956 | 7 | 155 | 0.0 | 0.0 | 0.00 | 0.00 | 0.00 | 96 | 1009.8 |
| 20260510044453 | 7 | 155 | 1.6 | 1.6 | 0.00 | 0.00 | 0.00 | 97 | 1009.8 |
| 20260510043950 | 8 | 155 | 0.0 | 0.0 | 0.00 | 0.00 | 0.00 | 97 | 1009.9 |
| 20260510043445 | 8 | 155 | 0.0 | 0.0 | 0.00 | 0.00 | 0.00 | 97 | 1009.8 |
| 20260510042944 | 8 | 155 | 0.0 | 0.0 | 0.00 | 0.00 | 0.00 | 97 | 1009.9 |
| 20260510042440 | 8 | 155 | 0.0 | 0.0 | 0.00 | 0.00 | 0.00 | 97 | 1009.7 |
| 20260510041935 | 8 | 155 | 1.6 | 1.6 | 0.00 | 0.00 | 0.00 | 97 | 1009.8 |
| 20260510041433 | 8 | 151 | 1.6 | 1.6 | 0.00 | 0.00 | 0.00 | 97 | 1009.8 |
| 20260510040931 | 8 | 152 | 0.0 | 0.0 | 0.00 | 0.00 | 0.00 | 97 | 1010.1 |
| 20260510040427 | 8 | 152 | 0.0 | 0.0 | 0.00 | 0.00 | 0.00 | 97 | 1009.7 |
| 20260510035922 | 8 | 152 | 0.0 | 0.0 | 0.00 | 1.30 | 1.30 | 96 | 1009.8 |
| 20260510035419 | 8 | 152 | 0.0 | 0.0 | 0.00 | 1.30 | 1.30 | 96 | 1009.8 |
| 20260510034919 | 8 | 152 | 0.0 | 0.0 | 0.00 | 1.30 | 1.30 | 96 | 1009.5 |
| 20260510034418 | 8 | 152 | 0.0 | 0.0 | 0.00 | 1.30 | 1.30 | 96 | 1009.8 |
| 20260510033913 | 8 | 152 | 0.0 | 0.0 | 0.00 | 1.30 | 1.30 | 96 | 1009.7 |
| 20260510033410 | 8 | 152 | 0.0 | 0.0 | 0.00 | 1.30 | 1.30 | 95 | 1009.8 |
| 20260510032907 | 8 | 152 | 0.0 | 0.0 | 0.00 | 1.30 | 1.30 | 95 | 1009.7 |
| 20260510032404 | 8 | 152 | 0.0 | 0.0 | 0.00 | 1.30 | 1.30 | 95 | 1009.8 |
| 20260510031859 | 8 | 152 | 0.0 | 0.0 | 0.00 | 1.30 | 1.30 | 95 | 1009.7 |
| 20260510031355 | 8 | 152 | 0.0 | 0.0 | 0.00 | 1.30 | 1.30 | 95 | 1009.6 |
| 20260510030855 | 8 | 152 | 0.0 | 0.0 | 0.00 | 1.30 | 1.30 | 95 | 1009.7 |
| 20260510030351 | 8 | 152 | 1.6 | 1.6 | 0.00 | 1.30 | 1.30 | 95 | 1009.8 |
| 20260510025849 | 8 | 151 | 0.0 | 0.0 | 0.00 | 1.30 | 1.30 | 94 | 1009.6 |
| 20260510025346 | 9 | 151 | 1.6 | 1.6 | 0.00 | 1.30 | 1.30 | 94 | 1009.5 |
| 20260510024843 | 9 | 134 | 0.0 | 0.0 | 0.00 | 1.30 | 1.30 | 94 | 1009.6 |
| 20260510024340 | 9 | 134 | 0.0 | 0.0 | 0.00 | 1.30 | 1.30 | 93 | 1009.4 |
| 20260510023836 | 9 | 134 | 0.0 | 0.0 | 0.00 | 1.30 | 1.30 | 93 | 1009.6 |
| 20260510023332 | 10 | 134 | 0.0 | 0.0 | 0.00 | 1.30 | 1.30 | 92 | 1009.5 |
| 20260510022830 | 10 | 134 | 0.0 | 0.0 | 0.00 | 1.30 | 1.30 | 92 | 1009.5 |
| 20260510022329 | 10 | 134 | 0.0 | 0.0 | 0.00 | 1.30 | 1.30 | 92 | 1009.6 |
| 20260510021828 | 10 | 134 | 0.0 | 0.0 | 0.00 | 1.30 | 1.30 | 91 | 1009.5 |
| 20260510021326 | 10 | 134 | 0.0 | 0.0 | 0.00 | 1.30 | 1.30 | 91 | 1009.5 |
| 20260510020822 | 10 | 134 | 0.0 | 0.0 | 0.00 | 1.30 | 1.30 | 90 | 1009.4 |
| 20260510020317 | 10 | 134 | 0.0 | 0.0 | 0.00 | 1.30 | 1.30 | 90 | 1009.4 |
| 20260510015813 | 10 | 134 | 0.0 | 0.0 | 0.00 | 1.30 | 1.30 | 89 | 1009.2 |
| 20260510015309 | 11 | 134 | 0.0 | 0.0 | 0.00 | 1.30 | 1.30 | 88 | 1009.2 |
| 20260510014805 | 11 | 134 | 3.2 | 3.2 | 0.00 | 1.30 | 1.30 | 88 | 1009.2 |
| 20260510014302 | 11 | 134 | 0.0 | 0.0 | 0.00 | 1.30 | 1.30 | 87 | 1009.3 |
| 20260510013758 | 11 | 133 | 1.6 | 1.6 | 0.00 | 1.30 | 1.30 | 90 | 1009.2 |
| 20260510013254 | 11 | 133 | 0.0 | 1.6 | 0.00 | 1.30 | 1.30 | 89 | 1009.2 |
| 20260510012749 | 11 | 134 | 1.6 | 3.2 | 0.00 | 1.30 | 1.30 | 90 | 1009.6 |
| 20260510012244 | 11 | 133 | 1.6 | 1.6 | 0.00 | 1.30 | 1.30 | 89 | 1009.4 |
| 20260510011743 | 11 | 132 | 0.0 | 0.0 | 0.00 | 1.30 | 1.30 | 90 | 1009.6 |
| 20260510011239 | 11 | 139 | 0.0 | 0.0 | 0.00 | 1.30 | 1.30 | 89 | 1009.6 |
| 20260510010736 | 11 | 139 | 0.0 | 0.0 | 0.00 | 1.30 | 1.30 | 89 | 1009.5 |
| 20260510010232 | 11 | 139 | 0.0 | 0.0 | 0.00 | 1.30 | 1.30 | 89 | 1009.3 |
| 20260510005730 | 11 | 139 | 0.0 | 0.0 | 0.00 | 1.30 | 1.30 | 89 | 1009.2 |
| 20260510005226 | 11 | 152 | 0.0 | 0.0 | 0.00 | 1.30 | 1.30 | 89 | 1009.3 |
| 20260510004724 | 11 | 152 | 0.0 | 0.0 | 0.00 | 1.30 | 1.30 | 87 | 1009.0 |
| 20260510004222 | 11 | 152 | 0.0 | 0.0 | 0.00 | 1.30 | 1.30 | 87 | 1008.8 |
| 20260510003719 | 11 | 152 | 0.0 | 0.0 | 0.00 | 1.30 | 1.30 | 87 | 1008.8 |
| 20260510003215 | 11 | 153 | 0.0 | 0.0 | 0.00 | 1.30 | 1.30 | 86 | 1009.0 |
| 20260510002714 | 11 | 153 | 0.0 | 0.0 | 0.00 | 1.30 | 1.30 | 85 | 1009.2 |
| 20260510002211 | 12 | 153 | 0.0 | 0.0 | 0.00 | 1.30 | 1.30 | 84 | 1009.0 |
| 20260510001708 | 12 | 153 | 1.6 | 1.6 | 0.00 | 1.30 | 1.30 | 81 | 1008.9 |
| 20260510001207 | 12 | 162 | 0.0 | 0.0 | 0.00 | 1.30 | 1.30 | 82 | 1008.8 |
| 20260510000708 | 12 | 163 | 0.0 | 0.0 | 0.00 | 1.30 | 1.30 | 76 | 1008.6 |
| 20260510000205 | 12 | 100 | 3.2 | 4.8 | 0.00 | 1.30 | 1.30 | 77 | 1008.7 |
| 20260509235702 | 12 | 142 | 0.0 | 0.0 | 0.00 | 1.30 | 1.30 | 81 | 1008.5 |
| 20260509235158 | 12 | 170 | 0.0 | 0.0 | 0.00 | 1.30 | 1.30 | 78 | 1008.5 |
| 20260509234654 | 12 | 219 | 0.0 | 0.0 | 0.00 | 1.30 | 1.30 | 81 | 1008.5 |
| 20260509234152 | 12 | 123 | 1.6 | 1.6 | 0.00 | 1.30 | 1.30 | 85 | 1008.5 |
| 20260509233650 | 12 | 139 | 0.0 | 0.0 | 0.00 | 1.30 | 1.30 | 84 | 1008.4 |
| 20260509233147 | 12 | 139 | 0.0 | 0.0 | 0.00 | 1.30 | 1.30 | 81 | 1008.4 |
| 20260509232643 | 13 | 139 | 0.0 | 1.6 | 0.00 | 1.30 | 1.30 | 79 | 1008.3 |
| 20260509232140 | 13 | 139 | 0.0 | 0.0 | 0.00 | 1.30 | 1.30 | 76 | 1008.1 |
| 20260509231636 | 13 | 139 | 0.0 | 0.0 | 0.00 | 1.30 | 1.30 | 72 | 1008.0 |
| 20260509231134 | 13 | 139 | 0.0 | 0.0 | 0.00 | 1.30 | 1.30 | 71 | 1007.9 |
| 20260509230631 | 13 | 139 | 1.6 | 1.6 | 0.00 | 1.30 | 1.30 | 71 | 1008.1 |
| 20260509230128 | 15 | 170 | 1.6 | 1.6 | 0.00 | 1.30 | 1.30 | 72 | 1008.2 |
| 20260509225624 | 15 | 201 | 0.0 | 1.6 | 0.00 | 1.30 | 1.30 | 71 | 1008.1 |
| 20260509225119 | 15 | 201 | 0.0 | 1.6 | 0.00 | 1.30 | 1.30 | 72 | 1008.0 |
| 20260509224614 | 14 | 202 | 1.6 | 1.6 | 0.00 | 1.30 | 1.30 | 70 | 1008.1 |
| 20260509224112 | 14 | 164 | 3.2 | 3.2 | 0.00 | 1.30 | 1.30 | 72 | 1008.1 |
| 20260509223609 | 13 | 140 | 1.6 | 1.6 | 0.00 | 1.30 | 1.30 | 72 | 1008.0 |
| 20260509223107 | 13 | 149 | 0.0 | 0.0 | 0.00 | 1.30 | 1.30 | 73 | 1008.0 |
| 20260509222602 | 13 | 179 | 0.0 | 0.0 | 0.00 | 1.30 | 1.30 | 73 | 1008.0 |
| 20260509222058 | 13 | 149 | 3.2 | 4.8 | 0.00 | 1.30 | 1.30 | 73 | 1008.2 |
| 20260509221554 | 13 | 123 | 4.8 | 4.8 | 0.00 | 1.30 | 1.30 | 73 | 1008.1 |
| 20260509221050 | 13 | 68 | 1.6 | 3.2 | 0.00 | 1.30 | 1.30 | 72 | 1008.0 |
| 20260509220546 | 13 | 167 | 0.0 | 1.6 | 0.00 | 1.30 | 1.30 | 74 | 1008.2 |
| 20260509220043 | 13 | 146 | 0.0 | 1.6 | 0.00 | 1.30 | 1.30 | 76 | 1008.2 |
| 20260509215538 | 13 | 55 | 4.8 | 6.4 | 0.00 | 1.30 | 1.30 | 76 | 1008.1 |
| 20260509215036 | 13 | 106 | 9.7 | 12.9 | 0.00 | 1.30 | 1.30 | 75 | 1008.5 |
| 20260509214533 | 13 | 211 | 8.0 | 9.7 | 0.00 | 1.30 | 1.30 | 73 | 1008.5 |
| 20260509214029 | 13 | 155 | 1.6 | 1.6 | 0.00 | 1.30 | 1.30 | 76 | 1008.5 |
| 20260509213525 | 13 | 91 | 0.0 | 1.6 | 0.00 | 1.30 | 1.30 | 80 | 1008.4 |
| 20260509213023 | 13 | 143 | 3.2 | 3.2 | 0.00 | 1.30 | 1.30 | 76 | 1008.5 |
| 20260509212520 | 13 | 108 | 4.8 | 4.8 | 0.00 | 1.30 | 1.30 | 78 | 1008.6 |
| 20260509212017 | 13 | 192 | 0.0 | 0.0 | 0.00 | 1.30 | 1.30 | 77 | 1008.3 |
| 20260509211512 | 12 | 88 | 3.2 | 3.2 | 0.00 | 1.30 | 1.30 | 79 | 1008.2 |
| 20260509211009 | 12 | 131 | 1.6 | 3.2 | 0.00 | 1.30 | 1.30 | 79 | 1008.4 |
| 20260509210506 | 12 | 142 | 0.0 | 1.6 | 0.00 | 1.30 | 1.30 | 82 | 1008.5 |
| 20260509210002 | 12 | 142 | 0.0 | 0.0 | 0.00 | 1.30 | 1.30 | 85 | 1008.5 |
| 20260509205456 | 12 | 125 | 0.0 | 0.0 | 0.00 | 1.30 | 1.30 | 87 | 1008.5 |
| 20260509204952 | 11 | 154 | 0.0 | 0.0 | 0.00 | 1.30 | 1.30 | 87 | 1008.6 |
| 20260509204448 | 11 | 154 | 0.0 | 0.0 | 0.00 | 1.30 | 1.30 | 89 | 1008.6 |
| 20260509203945 | 11 | 154 | 0.0 | 0.0 | 0.00 | 1.30 | 1.30 | 88 | 1008.7 |
| 20260509203441 | 11 | 155 | 0.0 | 1.6 | 0.00 | 1.30 | 1.30 | 88 | 1009.0 |
| 20260509202939 | 11 | 197 | 0.0 | 0.0 | 0.00 | 1.30 | 1.30 | 89 | 1008.9 |
| 20260509202435 | 11 | 221 | 1.6 | 1.6 | 0.00 | 1.30 | 1.30 | 87 | 1008.9 |
| 20260509201930 | 11 | 221 | 0.0 | 0.0 | 0.00 | 1.30 | 1.30 | 88 | 1009.0 |
| 20260509201425 | 11 | 222 | 1.6 | 1.6 | 0.00 | 1.30 | 1.30 | 86 | 1008.9 |
| 20260509200923 | 11 | 155 | 0.0 | 0.0 | 0.00 | 1.30 | 1.30 | 89 | 1008.9 |
| 20260509200422 | 11 | 163 | 0.0 | 0.0 | 0.00 | 1.30 | 1.30 | 86 | 1009.2 |
| 20260509195919 | 11 | 138 | 0.0 | 1.6 | 0.00 | 1.30 | 1.30 | 86 | 1008.8 |
| 20260509195415 | 11 | 169 | 1.6 | 1.6 | 0.00 | 1.30 | 1.30 | 88 | 1009.2 |
| 20260509194914 | 11 | 141 | 1.6 | 3.2 | 0.00 | 1.30 | 1.30 | 89 | 1009.0 |
| 20260509194411 | 11 | 151 | 1.6 | 1.6 | 0.00 | 1.30 | 1.30 | 91 | 1009.3 |
| 20260509193908 | 11 | 148 | 0.0 | 0.0 | 0.00 | 1.30 | 1.30 | 89 | 1009.0 |
| 20260509193407 | 11 | 159 | 1.6 | 3.2 | 0.00 | 1.30 | 1.30 | 89 | 1009.4 |
| 20260509192903 | 11 | 147 | 1.6 | 1.6 | 0.00 | 1.30 | 1.30 | 90 | 1009.5 |
| 20260509192400 | 11 | 118 | 3.2 | 3.2 | 0.00 | 1.30 | 1.30 | 89 | 1009.4 |
| 20260509191855 | 11 | 106 | 1.6 | 1.6 | 0.18 | 1.30 | 1.30 | 90 | 1009.4 |
| 20260509191351 | 11 | 131 | 4.8 | 6.4 | 0.18 | 1.30 | 1.30 | 90 | 1009.6 |
| 20260509190847 | 11 | 158 | 1.6 | 1.6 | 0.00 | 1.27 | 1.27 | 91 | 1009.5 |
| 20260509190344 | 11 | 129 | 1.6 | 1.6 | 0.00 | 1.27 | 1.27 | 92 | 1009.5 |
| 20260509185842 | 11 | 158 | 0.0 | 0.0 | 0.00 | 1.27 | 1.27 | 90 | 1009.5 |
| 20260509185338 | 11 | 180 | 1.6 | 3.2 | 0.13 | 1.27 | 1.27 | 90 | 1009.7 |
| 20260509184836 | 11 | 139 | 1.6 | 1.6 | 0.13 | 1.27 | 1.27 | 91 | 1009.6 |
| 20260509184332 | 11 | 146 | 1.6 | 1.6 | 0.00 | 1.24 | 1.24 | 92 | 1009.7 |
| 20260509183829 | 11 | 142 | 0.0 | 1.6 | 0.18 | 1.24 | 1.24 | 92 | 1009.8 |
| 20260509183324 | 11 | 153 | 1.6 | 3.2 | 0.18 | 1.24 | 1.24 | 92 | 1009.8 |
| 20260509182820 | 11 | 161 | 1.6 | 3.2 | 0.00 | 1.22 | 1.22 | 91 | 1009.7 |
| 20260509182318 | 11 | 169 | 0.0 | 1.6 | 0.00 | 1.22 | 1.22 | 92 | 1009.6 |
| 20260509181815 | 11 | 153 | 0.0 | 0.0 | 0.00 | 1.22 | 1.22 | 92 | 1009.6 |
| 20260509181312 | 11 | 119 | 1.6 | 1.6 | 0.00 | 1.22 | 1.22 | 92 | 1009.6 |
| 20260509180810 | 11 | 164 | 0.0 | 1.6 | 0.13 | 1.22 | 1.22 | 92 | 1009.5 |
| 20260509180306 | 11 | 167 | 0.0 | 1.6 | 0.13 | 1.22 | 1.22 | 91 | 1009.7 |
| 20260509175802 | 11 | 163 | 1.6 | 1.6 | 0.00 | 1.19 | 1.19 | 92 | 1009.7 |
| 20260509175259 | 11 | 127 | 0.0 | 0.0 | 0.18 | 1.19 | 1.19 | 93 | 1009.7 |
| 20260509174754 | 11 | 124 | 1.6 | 1.6 | 0.18 | 1.19 | 1.19 | 92 | 1009.4 |
| 20260509174250 | 11 | 150 | 0.0 | 1.6 | 0.00 | 1.17 | 1.17 | 93 | 1009.7 |
| 20260509173746 | 11 | 130 | 0.0 | 1.6 | 0.13 | 1.17 | 1.17 | 92 | 1009.6 |
| 20260509173242 | 11 | 143 | 1.6 | 1.6 | 0.30 | 1.17 | 1.17 | 91 | 1009.5 |
| 20260509172738 | 11 | 109 | 1.6 | 1.6 | 0.18 | 1.14 | 1.14 | 91 | 1009.6 |
| 20260509172235 | 11 | 112 | 0.0 | 0.0 | 0.18 | 1.14 | 1.14 | 92 | 1009.8 |
| 20260509171730 | 11 | 150 | 0.0 | 1.6 | 0.18 | 1.12 | 1.12 | 91 | 1009.6 |
| 20260509171227 | 11 | 132 | 0.0 | 1.6 | 0.00 | 1.09 | 1.09 | 92 | 1009.9 |
| 20260509170724 | 11 | 158 | 0.0 | 1.6 | 0.13 | 1.09 | 1.09 | 91 | 1009.8 |
| 20260509170220 | 11 | 158 | 1.6 | 1.6 | 0.13 | 1.09 | 1.09 | 91 | 1009.9 |
| 20260509165718 | 11 | 177 | 1.6 | 1.6 | 0.00 | 1.07 | 1.07 | 91 | 1010.0 |
| 20260509165213 | 11 | 174 | 3.2 | 3.2 | 0.00 | 1.07 | 1.07 | 91 | 1010.2 |
| 20260509164710 | 11 | 156 | 0.0 | 1.6 | 0.18 | 1.07 | 1.07 | 91 | 1010.1 |
| 20260509164206 | 10 | 156 | 0.0 | 1.6 | 0.18 | 1.07 | 1.07 | 92 | 1010.0 |
| 20260509163703 | 10 | 78 | 3.2 | 4.8 | 0.00 | 1.04 | 1.04 | 93 | 1010.1 |
| 20260509163159 | 10 | 147 | 0.0 | 0.0 | 0.13 | 1.04 | 1.04 | 93 | 1010.2 |
| 20260509162657 | 10 | 142 | 1.6 | 1.6 | 0.13 | 1.04 | 1.04 | 92 | 1010.2 |
| 20260509162152 | 10 | 155 | 0.0 | 0.0 | 0.00 | 1.02 | 1.02 | 93 | 1010.3 |
| 20260509161648 | 10 | 134 | 1.6 | 1.6 | 0.18 | 1.02 | 1.02 | 93 | 1010.4 |
| 20260509161144 | 10 | 140 | 1.6 | 1.6 | 0.18 | 1.02 | 1.02 | 92 | 1010.4 |
| 20260509160640 | 10 | 169 | 1.6 | 1.6 | 0.13 | 0.99 | 0.99 | 92 | 1010.6 |
| 20260509160135 | 10 | 129 | 1.6 | 1.6 | 0.30 | 0.99 | 0.99 | 92 | 1010.4 |
| 20260509155632 | 10 | 170 | 0.0 | 0.0 | 0.30 | 0.97 | 0.97 | 92 | 1010.6 |
| 20260509155128 | 10 | 140 | 3.2 | 3.2 | 0.13 | 0.94 | 0.94 | 91 | 1010.8 |
| 20260509154624 | 10 | 133 | 0.0 | 1.6 | 0.18 | 0.91 | 0.91 | 92 | 1010.8 |
| 20260509154121 | 10 | 146 | 1.6 | 1.6 | 0.18 | 0.91 | 0.91 | 92 | 1010.9 |
| 20260509153618 | 10 | 137 | 1.6 | 1.6 | 0.13 | 0.89 | 0.89 | 90 | 1010.9 |
| 20260509153115 | 10 | 158 | 0.0 | 0.0 | 0.13 | 0.89 | 0.89 | 92 | 1010.8 |
| 20260509152611 | 10 | 156 | 1.6 | 1.6 | 0.18 | 0.86 | 0.86 | 93 | 1010.9 |
| 20260509152108 | 10 | 157 | 0.0 | 0.0 | 0.18 | 0.86 | 0.86 | 92 | 1011.0 |
| 20260509151604 | 10 | 169 | 3.2 | 3.2 | 0.18 | 0.84 | 0.84 | 92 | 1011.1 |
| 20260509151103 | 10 | 122 | 1.6 | 1.6 | 0.18 | 0.84 | 0.84 | 94 | 1011.1 |
| 20260509150600 | 9 | 127 | 1.6 | 1.6 | 0.13 | 0.81 | 0.81 | 92 | 1011.2 |
| 20260509150058 | 10 | 146 | 1.6 | 1.6 | 0.13 | 0.81 | 0.81 | 93 | 1011.3 |
| 20260509145553 | 9 | 158 | 1.6 | 3.2 | 0.13 | 0.81 | 0.81 | 94 | 1011.1 |
| 20260509145049 | 9 | 120 | 1.6 | 3.2 | 0.18 | 0.79 | 0.79 | 94 | 1011.3 |
| 20260509144546 | 8 | 160 | 0.0 | 0.0 | 0.30 | 0.79 | 0.79 | 96 | 1011.1 |
| 20260509144043 | 8 | 134 | 1.6 | 1.6 | 0.13 | 0.76 | 0.76 | 96 | 1011.3 |
| 20260509143540 | 8 | 135 | 0.0 | 1.6 | 0.18 | 0.74 | 0.74 | 96 | 1011.3 |
| 20260509143038 | 8 | 135 | 0.0 | 0.0 | 0.30 | 0.74 | 0.74 | 95 | 1011.5 |
| 20260509142538 | 8 | 134 | 0.0 | 1.6 | 0.13 | 0.71 | 0.71 | 95 | 1011.3 |
| 20260509142035 | 8 | 134 | 0.0 | 0.0 | 0.18 | 0.69 | 0.69 | 96 | 1011.3 |
| 20260509141531 | 7 | 134 | 0.0 | 0.0 | 0.18 | 0.69 | 0.69 | 95 | 1011.3 |
| 20260509141028 | 7 | 134 | 0.0 | 0.0 | 0.13 | 0.66 | 0.66 | 96 | 1011.4 |
| 20260509140525 | 7 | 134 | 0.0 | 0.0 | 0.30 | 0.66 | 0.66 | 96 | 1011.3 |
| 20260509140023 | 7 | 134 | 0.0 | 0.0 | 0.18 | 0.64 | 0.64 | 96 | 1011.5 |
| 20260509135520 | 7 | 134 | 0.0 | 0.0 | 0.13 | 0.61 | 0.61 | 96 | 1011.3 |
| 20260509135017 | 7 | 134 | 0.0 | 0.0 | 0.13 | 0.61 | 0.61 | 96 | 1011.6 |
| 20260509134514 | 7 | 134 | 0.0 | 0.0 | 0.00 | 0.58 | 0.58 | 96 | 1011.1 |
| 20260509134012 | 7 | 134 | 0.0 | 0.0 | 0.18 | 0.58 | 0.58 | 96 | 1011.3 |
| 20260509133508 | 7 | 134 | 0.0 | 0.0 | 0.18 | 0.58 | 0.58 | 96 | 1011.1 |
| 20260509133007 | 6 | 134 | 0.0 | 0.0 | 0.18 | 0.58 | 0.58 | 96 | 1011.2 |
| 20260509132505 | 6 | 134 | 0.0 | 0.0 | 0.00 | 0.56 | 0.56 | 96 | 1011.5 |
| 20260509132002 | 6 | 134 | 1.6 | 1.6 | 0.00 | 0.56 | 0.56 | 96 | 1011.2 |
| 20260509131458 | 6 | 134 | 0.0 | 0.0 | 0.13 | 0.56 | 0.56 | 96 | 1011.2 |
| 20260509130955 | 6 | 134 | 0.0 | 0.0 | 0.13 | 0.56 | 0.56 | 96 | 1011.2 |
| 20260509130450 | 6 | 150 | 1.6 | 1.6 | 0.00 | 0.53 | 0.53 | 95 | 1011.1 |
| 20260509125948 | 6 | 150 | 1.6 | 1.6 | 0.00 | 0.53 | 0.53 | 96 | 1011.4 |
| 20260509125444 | 6 | 151 | 0.0 | 1.6 | 0.18 | 0.53 | 0.53 | 96 | 1011.3 |
| 20260509124940 | 6 | 151 | 0.0 | 0.0 | 0.18 | 0.53 | 0.53 | 96 | 1011.3 |
| 20260509124437 | 6 | 151 | 0.0 | 0.0 | 0.18 | 0.53 | 0.53 | 96 | 1011.4 |
| 20260509123934 | 6 | 151 | 0.0 | 0.0 | 0.00 | 0.51 | 0.51 | 96 | 1011.3 |
| 20260509123432 | 6 | 151 | 1.6 | 3.2 | 0.00 | 0.51 | 0.51 | 96 | 1011.4 |
| 20260509122928 | 6 | 151 | 0.0 | 0.0 | 0.00 | 0.51 | 0.51 | 96 | 1011.4 |
| 20260509122425 | 6 | 151 | 0.0 | 0.0 | 0.00 | 0.51 | 0.51 | 96 | 1011.6 |
| 20260509121921 | 6 | 151 | 0.0 | 0.0 | 0.00 | 0.51 | 0.51 | 96 | 1011.5 |
| 20260509121418 | 6 | 151 | 0.0 | 0.0 | 0.00 | 0.51 | 0.51 | 96 | 1011.5 |
| 20260509120917 | 6 | 151 | 0.0 | 0.0 | 0.18 | 0.51 | 0.51 | 96 | 1011.7 |
| 20260509120414 | 5 | 151 | 0.0 | 0.0 | 0.18 | 0.51 | 0.51 | 96 | 1011.5 |
| 20260509115912 | 5 | 151 | 0.0 | 0.0 | 0.13 | 0.48 | 0.48 | 96 | 1011.7 |
| 20260509115409 | 5 | 151 | 0.0 | 0.0 | 0.30 | 0.48 | 0.48 | 97 | 1011.7 |
| 20260509114906 | 5 | 153 | 0.0 | 1.6 | 0.18 | 0.46 | 0.46 | 97 | 1011.8 |
| 20260509114405 | 5 | 153 | 0.0 | 0.0 | 0.00 | 0.43 | 0.43 | 97 | 1011.9 |
| 20260509113904 | 5 | 154 | 0.0 | 0.0 | 0.00 | 0.43 | 0.43 | 97 | 1011.9 |
| 20260509113401 | 5 | 154 | 0.0 | 0.0 | 0.00 | 0.43 | 0.43 | 97 | 1011.8 |
| 20260509112857 | 5 | 154 | 0.0 | 0.0 | 0.00 | 0.43 | 0.43 | 97 | 1011.8 |
| 20260509112354 | 5 | 154 | 0.0 | 1.6 | 0.13 | 0.43 | 0.43 | 97 | 1011.8 |
| 20260509111852 | 5 | 149 | 1.6 | 1.6 | 0.30 | 0.43 | 0.43 | 97 | 1011.7 |
| 20260509111348 | 5 | 158 | 0.0 | 0.0 | 0.18 | 0.41 | 0.41 | 97 | 1011.4 |
| 20260509110846 | 4 | 158 | 0.0 | 1.6 | 0.30 | 0.41 | 0.41 | 97 | 1011.7 |
| 20260509110342 | 4 | 158 | 0.0 | 0.0 | 0.30 | 0.38 | 0.38 | 97 | 1011.7 |
| 20260509105841 | 4 | 166 | 0.0 | 0.0 | 0.48 | 0.36 | 0.36 | 97 | 1012.0 |
| 20260509105338 | 3 | 165 | 0.0 | 0.0 | 0.30 | 0.33 | 0.33 | 97 | 1011.5 |
| 20260509104835 | 3 | 165 | 1.6 | 1.6 | 0.30 | 0.30 | 0.30 | 97 | 1011.7 |
| 20260509104331 | 3 | 165 | 0.0 | 0.0 | 0.30 | 0.28 | 0.28 | 96 | 1011.7 |